[[{"header":{"parameterUnit":"m.s-1","parameterCategory":1,"la1":30.2991,"la2":30.254,"lo1":-89.0895,"lo2":-89.0444,"dy":0.0017,"dx":0.0017,"nx":28,"ny":28,"refTime":"2026-02-14T09:00:00:Z","depth":0,"parameterNumber":2,"parameterNumberName":"U-component_of_WINDS"},"data":[0,0,0,0,0,0,0,0,0,0,0,0,0,0,0,0,0,0,0,0,0,0,0,0,0,0,0,0,0,0,0,0,0,0,0,0,0,0,0,0,0,0,0,0,0,0,0,0,0,0,0,0,0,0,0,0,0,0,-3.9371,-3.9375,0,-3.9689,-3.9693,-3.9696,-3.9788,-3.9786,-3.9784,-3.9783,-4.0108,-4.0118,-4.0128,0,0,0,0,0,0,0,0,0,0,0,0,0,-3.8846,-3.8855,-3.9371,-3.9375,-3.9379,-3.9688,-3.9693,-3.9697,-3.9788,-3.9786,-3.9784,-3.9782,-4.0104,-4.0116,-4.0129,0,0,0,0,0,0,0,0,0,0,0,0,0,-3.9109,-3.8858,-3.937,-3.9462,-3.9473,-3.9688,-3.9693,-3.9698,-3.9789,-3.9786,-3.9783,-3.9781,-4.01,-4.0115,-4.013,-4.0277,0,0,-4.0177,-4.0184,0,0,0,0,0,0,0,0,-3.9094,-3.9129,-3.9444,-3.9456,-3.9469,-3.9696,-3.9627,-3.9892,-3.9789,-3.9669,-3.9783,-3.978,-3.9973,-3.9998,-4.0064,-4.0292,-4.0306,-4.0179,-4.0188,-4.0195,-4.0199,0,0,0,0,0,0,0,-3.9076,-3.9115,-3.9497,-3.9449,-3.9464,-3.9488,-3.9522,-3.9678,-3.9831,-3.9679,-3.9686,-3.9723,-3.9979,-4.0049,-4.0072,-4.0311,-4.0178,-4.0192,-4.0201,-4.0207,-4.0679,-4.0682,0,0,0,0,0,0,-3.9042,-3.91,-3.9487,-3.9506,-3.9271,-3.9499,-3.9538,-3.9626,-3.983,-3.9858,-3.9725,-3.9726,-4.0024,-4.0054,-4.0084,-4.0271,-4.0195,-4.0209,-4.0218,-4.0676,-4.068,-4.0683,0,0,0,0,0,0,-3.903,-3.9076,-3.9474,-3.9305,-3.9358,-3.9511,-3.9609,-3.9633,-3.9703,-3.9864,-3.9892,-3.9767,-4.0023,-4.0062,-4.0229,-4.0283,-4.0216,-4.023,-4.0672,-4.0677,-4.0682,-4.0643,0,0,0,0,0,0,-3.9015,-3.9071,-3.9127,-3.9306,-3.9366,-3.9613,-3.9612,-3.9641,-3.9729,-3.9734,-3.9912,-3.9939,-4.0024,-4.0206,-4.0244,-4.0303,-4.0242,-4.0668,-4.0674,-4.068,-4.064,-4.0646,-4.0652,0,0,0,0,0,-3.8996,-3.9103,-3.9129,-3.9175,-3.944,-3.9615,-3.965,-3.9746,-3.9733,-3.9792,-3.9896,-3.9933,-4.0271,-4.0222,-4.0266,-4.033,-4.0665,-4.0672,-4.0679,-4.0638,-4.0645,-4.0651,0,0,0,0,0,0,-3.8924,-3.9127,-3.9159,-3.9327,-3.9454,-3.963,-3.9707,-3.975,-3.9882,-3.9881,-3.9995,-4.0034,-4.0193,-4.0279,-4.022,-4.0485,-4.0469,-4.0486,-4.0422,-4.0431,-4.0436,-4.0412,-4.0255,0,0,0,0,0,-3.8929,-3.9054,-3.9225,-3.9357,-3.9419,-3.9552,-3.9632,-3.9695,-3.9831,-3.9884,-4.0001,-4.0131,-4.0267,-4.0354,-4.0488,-4.0654,-4.0695,-4.0721,-4.0726,-4.073,-4.0742,-4.084,-4.0854,-4.0708,-4.0708,-4.0708,0,0,-3.8937,-3.9064,-3.9136,-3.9346,-3.9451,-3.9579,-3.9596,-3.973,-3.9827,-3.9905,-4.007,-4.016,-4.0313,-4.0481,-4.0561,-4.0557,-4.0793,-4.0739,-4.0741,-4.0752,-4.0849,-4.0862,-4.0875,-4.0713,-4.0712,-4.0711,0,0,-3.902,-3.9128,-3.925,-3.9357,-3.9517,-3.9606,-3.9635,-3.9807,-3.9871,-4.0038,-4.01,-4.0218,-4.0449,-4.0556,-4.0641,-4.0769,-4.0809,-4.081,-4.0838,-4.0932,-4.0943,-4.0954,-4.1001,-4.1016,-4.0822,-4.0822,-4.0822,0,-3.901,-3.9206,-3.9308,-3.9441,-3.9532,-3.961,-3.9737,-3.9835,-4.003,-4.0092,-4.0085,-4.038,-4.0488,-4.0684,-4.0715,-4.0781,-4.082,-4.0789,-4.0933,-4.0945,-4.0957,-4.1003,-4.102,-4.0821,-4.0822,-4.0822,-4.0822,0,-3.9188,-3.9323,-3.9403,-3.9591,-3.9692,-3.982,-3.9943,-4.0033,-4.0089,-4.0179,-4.035,-4.0484,-4.0648,-4.0699,-4.0754,-4.0904,-4.0897,-4.0911,-4.0897,-4.0968,-4.1013,-4.1031,-4.082,-4.082,-4.0821,-4.0821,0,0,-3.923,-3.9476,-3.9504,-3.9592,-3.9777,-3.9883,-4.0017,-4.0178,-4.0254,-4.0387,-4.0503,-4.0699,-4.0714,-4.081,-4.0879,-4.0961,-4.1057,-4.0966,-4.0971,-4.0978,-4.1232,-4.122,-4.1238,-4.1085,-4.1089,-4.1092,-4.1219,0,-3.9335,-3.9577,-3.9675,-3.987,-3.9998,-4.0077,-4.0194,-4.032,-4.0409,-4.0531,-4.0629,-4.0767,-4.0776,-4.0835,-4.092,-4.1026,-4.1109,-4.1019,-4.1194,-4.1199,-4.1152,-4.1262,-4.1249,-4.1363,-4.1237,-4.124,-4.1243,0,-3.9489,-3.9626,-3.9834,-4.0007,-4.0065,-4.0167,-4.0325,-4.044,-4.0587,-4.0646,-4.0756,-4.0821,-4.0966,-4.0945,-4.1147,-4.1084,-4.1162,-4.1226,-4.1233,-4.1252,-4.1224,-4.1284,-4.1401,-4.1418,-4.1271,-4.1269,-4.1267,0,-3.95,-3.9736,-3.9892,-3.9965,-4.017,-4.0241,-4.033,-4.0475,-4.0566,-4.0705,-4.0766,-4.0919,-4.1002,-4.112,-4.1225,-4.12,-4.1419,-4.1405,-4.1472,-4.147,-4.1513,-4.1509,-4.1644,-4.1564,-4.1564,-4.1564,-4.1563,0,-3.9607,-3.9731,-3.99,-3.9996,-4.0139,-4.0252,-4.0391,-4.0486,-4.0614,-4.0731,-4.0809,-4.0917,-4.105,-4.1176,-4.126,-4.1416,-4.1453,-4.1505,-4.1526,-4.1498,-4.1491,-4.155,-4.1544,-4.1568,-4.1567,-4.1566,-4.1566,0,-3.9641,-3.9759,-3.9935,-4.0116,-4.0165,-4.0263,-4.0419,-4.0516,-4.061,-4.0757,-4.0798,-4.0946,-4.1098,-4.1216,-4.1414,-4.147,-4.1636,-4.1658,-4.1586,-4.1596,-4.1657,-4.1649,-4.1834,-4.1864,-4.1764,-4.1764,-4.1765,0,-3.9701,-3.9799,-3.9992,-4.0077,-4.0165,-4.03,-4.0395,-4.0511,-4.0607,-4.0785,-4.0861,-4.1019,-4.1152,-4.1392,-4.1517,-4.167,-4.1697,-4.1751,-4.172,-4.169,-4.1698,-4.1691,-4.1702,-4.1754,-4.1755,-4.1755,-4.1755,0,-3.9795,-3.985,-3.9983,-4.0139,-4.0251,-4.0379,-4.0509,-4.0574,-4.0714,-4.0818,-4.0976,-4.1079,-4.1283,-4.144,-4.1606,-4.1699,-4.1751,-4.1765,-4.1789,-4.176,-4.1715,-4.1741,-4.1596,-4.1759,-4.1759,-4.1759,-4.1758,-4.1758,-3.9844,-3.9936,-4.0088,-4.0235,-4.0346,-4.0467,-4.0568,-4.0676,-4.0809,-4.0985,-4.1046,-4.1209,-4.1358,-4.1587,-4.1681,-4.1811,-4.1813,-4.1847,-4.1856,-4.1862,-4.186,-4.1695,-4.1842,-4.1842,-4.1842,-4.1842,-4.1842,0,-3.9942,-4.0045,-4.018,-4.036,-4.0477,-4.0518,-4.0665,-4.076,-4.0903,-4.1037,-4.1167,-4.135,-4.1504,-4.1643,-4.1803,-4.1881,-4.1909,-4.1919,-4.1914,-4.1935,-4.1848,-4.1812,-4.1894,-4.1894,-4.1894,-4.1894,-4.1894,-4.1894,-4.0007,-4.0166,-4.0239,-4.0455,-4.0557,-4.0717,-4.0798,-4.0911,-4.1019,-4.122,-4.1348,-4.1439,-4.1576,-4.1748,-4.1892,-4.1929,-4.1984,-4.1988,-4.2031,-4.1947,-4.1941,-4.1934,-4.1901,-4.1999,-4.2,-4.2107,-4.2108,-4.2109]},{"header":{"parameterUnit":"m.s-1","parameterCategory":1,"la1":30.2991,"la2":30.254,"lo1":-89.0895,"lo2":-89.0444,"dy":0.0017,"dx":0.0017,"nx":28,"ny":28,"refTime":"2026-02-14T09:00:00:Z","depth":0,"parameterNumber":3,"parameterNumberName":"V-component_of_WINDS"},"data":[0,0,0,0,0,0,0,0,0,0,0,0,0,0,0,0,0,0,0,0,0,0,0,0,0,0,0,0,0,0,0,0,0,0,0,0,0,0,0,0,0,0,0,0,0,0,0,0,0,0,0,0,0,0,0,0,0,0,2.5094,2.5095,0,2.5164,2.5164,2.5165,2.5199,2.5199,2.5199,2.5199,2.527,2.5272,2.5274,0,0,0,0,0,0,0,0,0,0,0,0,0,2.4995,2.4997,2.5094,2.5095,2.5096,2.5163,2.5164,2.5165,2.5199,2.5199,2.5199,2.5199,2.527,2.5272,2.5274,0,0,0,0,0,0,0,0,0,0,0,0,0,2.5048,2.4997,2.5094,2.5121,2.5124,2.5163,2.5164,2.5166,2.5199,2.5199,2.5199,2.5199,2.5269,2.5272,2.5274,2.5292,0,0,2.5283,2.5284,0,0,0,0,0,0,0,0,2.5045,2.5052,2.5116,2.5119,2.5123,2.5173,2.5156,2.5208,2.5199,2.5171,2.5199,2.5199,2.5238,2.5243,2.5256,2.5295,2.5299,2.5283,2.5285,2.5286,2.5287,0,0,0,0,0,0,0,2.5042,2.5049,2.5122,2.5117,2.5121,2.5131,2.5138,2.5166,2.5203,2.5173,2.5176,2.5183,2.524,2.5253,2.5258,2.53,2.5283,2.5286,2.5288,2.5289,2.5363,2.5364,0,0,0,0,0,0,2.5033,2.5046,2.5119,2.5124,2.5083,2.5133,2.5141,2.5157,2.5203,2.521,2.5183,2.5185,2.5249,2.5255,2.5261,2.5289,2.5286,2.5289,2.5291,2.5363,2.5363,2.5364,0,0,0,0,0,0,2.5031,2.5039,2.5117,2.5086,2.5096,2.5134,2.5151,2.5158,2.5172,2.5211,2.5218,2.519,2.5249,2.5257,2.5286,2.5292,2.529,2.5293,2.5363,2.5363,2.5364,2.5342,0,0,0,0,0,0,2.5028,2.5038,2.5044,2.5085,2.5098,2.5139,2.5152,2.5159,2.5177,2.5179,2.5219,2.5226,2.5249,2.5281,2.5288,2.5295,2.5295,2.5362,2.5363,2.5364,2.5342,2.5342,2.5341,0,0,0,0,0,2.5024,2.5034,2.5044,2.5053,2.5106,2.5139,2.5146,2.5173,2.5177,2.5184,2.5211,2.5225,2.529,2.5284,2.5292,2.53,2.5362,2.5363,2.5363,2.5343,2.5342,2.5341,0,0,0,0,0,0,2.4991,2.504,2.5052,2.5075,2.5103,2.5145,2.5154,2.517,2.5197,2.5198,2.523,2.5239,2.5266,2.5286,2.5278,2.5323,2.5328,2.533,2.5309,2.5308,2.5308,2.5303,2.5297,0,0,0,0,0,2.4987,2.5009,2.505,2.5067,2.5081,2.5115,2.513,2.5149,2.5179,2.5191,2.5219,2.5248,2.5276,2.5293,2.532,2.5346,2.5357,2.5356,2.5355,2.5354,2.5356,2.5376,2.5378,2.5366,2.5366,2.5366,0,0,2.4977,2.5007,2.5018,2.5061,2.5085,2.5109,2.5124,2.5148,2.5167,2.5195,2.5225,2.5246,2.5282,2.531,2.5324,2.5327,2.5362,2.5355,2.5354,2.5357,2.5377,2.5378,2.5379,2.5366,2.5366,2.5366,0,0,2.4973,2.4996,2.5015,2.5039,2.5076,2.51,2.5104,2.5145,2.5161,2.5192,2.5215,2.5239,2.5284,2.531,2.5328,2.534,2.5356,2.5348,2.5345,2.5364,2.5365,2.5366,2.5374,2.5376,2.535,2.535,2.535,0,2.4957,2.4993,2.5022,2.5046,2.5066,2.5094,2.5115,2.5137,2.5181,2.5195,2.5198,2.526,2.5285,2.5322,2.5326,2.5339,2.5348,2.5344,2.5362,2.5364,2.5365,2.5373,2.5376,2.5349,2.5349,2.5349,2.5349,0,2.4973,2.4999,2.501,2.5053,2.5074,2.5096,2.5131,2.5149,2.5167,2.5192,2.5226,2.5258,2.5294,2.5304,2.5321,2.5346,2.5348,2.5356,2.5362,2.5365,2.5373,2.5376,2.5347,2.5348,2.5348,2.5348,0,0,2.4947,2.501,2.5014,2.5036,2.5081,2.5102,2.5127,2.5164,2.5181,2.5211,2.5236,2.5276,2.5287,2.5308,2.5329,2.5345,2.5358,2.5353,2.5354,2.5356,2.5393,2.5388,2.5391,2.5369,2.537,2.537,2.5391,0,2.4952,2.4998,2.5027,2.5063,2.5089,2.5118,2.5141,2.5173,2.5197,2.5225,2.5252,2.5282,2.5291,2.5305,2.5323,2.5353,2.5367,2.5351,2.5395,2.5396,2.5387,2.5394,2.5387,2.5406,2.5394,2.5395,2.5395,0,2.4961,2.4993,2.5032,2.5079,2.5091,2.5111,2.515,2.5175,2.5213,2.523,2.5257,2.5279,2.531,2.5313,2.5359,2.5348,2.5368,2.5386,2.5388,2.5394,2.5397,2.5403,2.5411,2.5415,2.54,2.54,2.5399,0,2.4943,2.4995,2.5026,2.5044,2.5098,2.5113,2.5136,2.5174,2.5196,2.5231,2.5247,2.5284,2.5305,2.5334,2.5367,2.5366,2.5412,2.5416,2.5429,2.5429,2.5438,2.5437,2.5452,2.5447,2.5447,2.5447,2.5447,0,2.4945,2.4968,2.5019,2.5038,2.5067,2.5102,2.513,2.5156,2.5191,2.5218,2.5245,2.527,2.5311,2.5342,2.5368,2.5405,2.5413,2.543,2.5437,2.5429,2.5427,2.5443,2.5444,2.5447,2.5447,2.5447,2.5447,0,2.4928,2.4963,2.5,2.505,2.5064,2.5083,2.5127,2.5148,2.5176,2.521,2.5221,2.5264,2.5303,2.5339,2.5389,2.5408,2.5446,2.5453,2.5433,2.5437,2.545,2.5449,2.5477,2.5484,2.5472,2.5472,2.5472,0,2.4928,2.4947,2.5001,2.5021,2.5045,2.5077,2.5101,2.5137,2.5161,2.521,2.5226,2.5267,2.5302,2.5363,2.5401,2.5441,2.5452,2.5459,2.5458,2.5451,2.5456,2.5455,2.5459,2.5458,2.5458,2.5458,2.5458,0,2.4926,2.4943,2.4976,2.5017,2.5045,2.5078,2.5112,2.5128,2.5172,2.5198,2.5239,2.5266,2.5321,2.5363,2.5408,2.5435,2.5456,2.5459,2.5464,2.5457,2.5446,2.5456,2.5435,2.5458,2.5458,2.5458,2.5458,2.5458,2.4919,2.494,2.4982,2.5019,2.505,2.5083,2.5107,2.514,2.5174,2.5221,2.5242,2.5284,2.5327,2.5391,2.5418,2.5454,2.5458,2.5465,2.5468,2.547,2.547,2.5439,2.5462,2.5462,2.5462,2.5462,2.5462,0,2.4921,2.4951,2.4985,2.5034,2.5064,2.5081,2.5122,2.5147,2.5184,2.5222,2.5258,2.5307,2.5349,2.5392,2.5437,2.5458,2.5469,2.5469,2.5469,2.5476,2.5462,2.5454,2.546,2.546,2.546,2.546,2.546,2.546,2.4925,2.4962,2.4985,2.504,2.507,2.5112,2.5134,2.5167,2.5198,2.5253,2.5288,2.5316,2.5358,2.5408,2.5449,2.5461,2.5477,2.5475,2.549,2.5476,2.5476,2.5476,2.5469,2.5478,2.5478,2.5502,2.5502,2.5502]}]]